RH
50 46 40 36 30 28 25 24 24 18 13 12 14 18 20 20 23 24 24 23 18 21 19 19 21 22 23 28 30 31 31 32 13 13 12 12 12 12 12 13 13 13 12 11
56 53 49 46 40 33 24 21 23 22 18 15 15 15 18 15 17 22 24 20 18 20 22 21 22 22 25 28 31 34 32 32 16 14 13 12 13 13 14 15 15 14 13 12
56 53 54 51 46 38 36 28 26 19 18 18 19 14 11 10 10 17 24 20 24 24 21 21 24 25 27 28 31 35 35 29 20 19 15 15 16 17 17 16 15 14 13 13
67 67 67 67 64 57 45 38 32 24 20 29 18 26 20 17 14 12 22 22 21 24 24 24 24 25 26 28 32 35 38 28 24 17 14 15 17 18 17 16 16 16 16 15
50 53 56 65 62 60 52 49 43 31 29 34 30 34 20 21 18 15 16 21 22 25 24 25 26 26 27 30 35 41 42 24 21 20 18 16 17 18 19 20 20 19 15 14
71 68 66 61 54 39 39 43 38 38 46 60 39 31 19 20 19 16 16 18 23 25 26 25 27 29 29 31 36 44 41 24 22 23 20 18 18 20 22 24 22 20 20 20
72 64 71 73 67 53 48 52 52 67 68 60 36 36 25 26 26 26 24 22 22 26 27 26 28 28 28 30 38 48 34 23 25 23 21 22 23 26 28 26 26 26 24 24
65 54 53 53 61 57 58 54 50 56 65 50 38 39 32 28 25 24 24 22 28 29 27 27 27 28 29 37 49 53 27 23 24 24 25 26 28 30 30 28 30 29 26 30
64 58 52 50 49 56 61 61 59 64 60 86 57 38 34 31 31 31 29 26 24 23 22 24 28 28 28 44 58 35 29 25 28 30 30 31 32 35 35 35 32 32 32 38
63 67 58 53 52 48 54 51 62 90 96 92 74 61 50 39 34 33 32 31 29 28 27 27 26 28 35 55 62 34 30 29 32 35 36 35 37 38 38 36 44 48 43 45
76 75 57 60 51 53 49 49 54 63 94 93 91 61 42 43 40 40 36 33 32 32 30 29 32 30 47 67 65 38 30 32 40 41 38 35 35 40 42 51 57 55 51 52
78 97 89 80 62 65 55 50 51 66 90 98 95 80 47 52 44 42 40 38 37 37 34 38 43 42 58 74 58 36 33 38 42 38 39 33 34 40 49 62 59 56 53 54
66 85 90 56 49 72 67 62 63 68 84 96 97 79 53 60 56 54 48 45 40 36 33 38 44 55 76 80 56 40 38 41 42 49 47 39 44 55 68 64 59 63 58 50
72 72 79 96 80 99 90 87 88 88 97 93 94 77 45 54 68 64 56 50 43 38 44 48 53 61 81 80 65 43 41 41 62 78 86 61 50 70 74 73 68 65 64 40
87 80 79 82 72 74 85 68 72 96 84 98 96 98 62 64 74 70 66 60 48 47 49 54 61 73 87 93 95 76 49 51 85 94 94 83 70 73 72 61 72 73 50 48
92 88 82 82 80 81 72 61 50 66 77 71 88 93 100 94 86 85 67 76 81 56 48 56 66 76 92 76 78 79 74 74 79 91 95 85 81 77 73 62 76 65 49 51
99 98 98 90 85 84 91 42 42 45 51 69 57 53 70 92 98 99 87 78 90 96 92 83 96 91 82 97 96 79 84 89 87 100 96 72 68 73 59 79 81 49 51 44
98 100 99 93 88 95 50 47 52 51 52 53 55 59 72 69 78 92 97 98 95 95 97 98 87 98 98 99 97 98 100 95 99 97 90 59 68 65 77 88 62 56 46 28
98 100 98 94 96 80 54 44 40 50 46 60 67 72 83 95 96 86 88 92 85 91 97 98 96 98 97 95 98 99 100 99 75 90 94 78 82 78 88 83 62 59 36 22
93 100 100 96 96 90 46 52 66 74 69 66 83 82 82 85 82 85 85 84 74 90 96 97 96 97 98 98 98 99 98 93 95 100 97 94 89 84 92 68 67 43 16 17
98 99 97 97 94 70 61 55 70 76 50 75 76 67 64 56 68 70 65 70 87 72 78 84 92 94 93 88 91 98 92 99 99 97 96 96 92 96 82 74 69 34 16 18
86 90 94 98 96 89 50 56 64 56 58 55 59 58 58 50 47 44 63 62 66 62 57 56 58 67 64 75 86 91 98 99 99 97 94 90 91 98 90 75 71 25 19 18
96 74 69 65 54 44 52 51 55 59 57 55 45 50 45 42 52 50 41 39 51 46 51 52 55 66 79 82 88 98 93 88 98 93 90 88 94 98 86 80 68 17 19 20
74 89 80 61 56 55 65 57 48 42 40 44 50 54 53 43 56 71 60 65 62 54 50 63 66 66 71 72 68 90 99 97 98 92 94 96 100 94 86 83 30 18 19 24
72 76 67 68 60 53 57 37 34 34 40 45 40 44 52 56 62 69 72 68 65 66 58 54 56 56 62 94 99 99 86 100 95 95 96 96 98 96 90 63 19 19 22 27
73 61 50 45 41 52 40 26 23 34 47 48 42 52 59 58 68 77 80 70 74 72 67 63 63 62 65 100 99 97 97 93 95 96 97 96 96 96 84 29 18 20 26 29
Wind_Speed
24 28 31 25 25 29 32 31 28 30 27 31 37 40 35 33 39 37 34 34 32 28 31 30 28 27 26 25 22 23 24 24 20 19 18 17 16 14 13 13 13 13 14 15
28 37 30 25 25 27 29 31 34 34 32 34 37 44 37 35 40 37 36 38 32 31 32 31 28 26 26 26 24 25 24 23 20 18 17 16 15 14 13 13 14 15 16 17
37 41 26 22 24 29 33 33 30 34 34 34 34 56 49 46 44 44 37 38 33 33 31 29 26 27 28 28 28 27 24 23 20 19 18 16 14 14 14 14 14 14 16 18
32 35 39 38 38 31 35 32 27 29 32 25 19 28 37 32 40 43 38 39 40 33 31 30 31 32 31 32 31 28 23 23 20 18 18 17 16 15 15 15 16 18 20 22
32 30 26 30 37 33 39 32 27 21 21 27 38 17 34 27 39 43 39 40 40 35 33 34 35 35 37 36 33 29 23 21 17 16 17 18 18 18 17 17 19 20 22 23
38 33 28 24 19 19 15 16 16 21 18 11 31 24 75 41 42 43 38 40 37 38 36 36 40 42 41 41 36 31 26 20 17 16 17 18 19 19 19 19 21 22 22 24
37 42 41 37 30 23 16 11 4 5 7 10 13 22 65 9 12 17 25 31 37 38 38 39 44 42 42 41 38 32 28 23 19 17 17 17 19 19 20 21 21 22 24 25
5 13 11 28 39 40 36 32 13 5 5 7 21 21 29 25 19 21 18 17 31 33 36 39 45 43 43 42 37 33 29 25 21 18 17 17 19 21 20 21 22 24 25 25
7 11 10 11 15 22 31 26 38 31 26 9 13 27 34 38 33 25 24 27 29 30 33 33 37 41 41 40 34 34 29 25 21 18 18 19 20 22 21 22 24 25 25 26
22 25 32 19 14 23 24 20 9 13 5 8 16 29 35 18 5 19 25 26 27 29 32 37 40 41 41 37 34 33 28 24 21 18 19 21 22 22 23 23 24 24 25 25
11 14 36 27 33 36 20 26 32 23 17 5 4 12 43 40 34 37 39 36 27 27 29 36 36 38 38 35 34 30 25 23 21 17 20 21 21 22 22 22 23 24 24 25
16 9 21 30 34 28 33 35 19 17 14 12 14 24 43 31 23 10 11 16 24 30 33 34 29 36 35 34 31 27 24 22 19 17 18 20 20 21 22 21 22 23 24 25
17 7 14 30 21 4 16 20 24 23 25 23 15 19 38 20 22 22 32 35 32 31 32 31 28 31 31 30 27 24 23 22 18 15 15 16 18 21 19 20 22 22 23 24
25 22 20 18 28 20 18 22 25 24 15 29 34 46 55 48 37 30 33 32 30 30 30 31 29 30 30 30 25 22 26 24 20 16 15 15 21 19 18 20 21 22 23 23
20 23 26 25 26 30 25 26 31 30 24 23 30 30 55 50 38 37 28 29 29 29 27 26 25 25 26 28 27 29 33 29 24 23 23 17 17 18 19 21 22 22 22 19
23 23 25 30 30 30 27 37 39 32 34 26 26 37 23 30 34 32 33 29 27 29 32 24 21 23 25 25 28 32 39 39 36 39 28 25 20 21 20 21 21 21 19 16
26 22 15 23 20 13 19 29 14 17 24 27 29 21 26 23 23 30 31 32 26 17 16 29 17 20 24 31 23 22 22 24 25 24 17 16 21 20 23 19 20 19 16 12
33 27 20 13 13 6 22 16 13 24 29 26 26 18 14 15 20 19 17 27 23 16 17 17 17 22 26 29 25 26 24 22 27 18 13 18 21 22 20 19 18 17 13 11
35 33 24 12 15 16 30 25 22 15 21 21 19 12 12 14 18 12 10 17 12 13 20 16 21 27 23 22 26 28 25 29 9 15 18 20 19 18 17 18 17 16 14 14
37 38 37 19 5 6 14 9 10 11 21 11 2 4 8 9 14 8 5 11 15 21 22 22 22 26 29 27 24 27 24 14 16 19 18 17 15 16 17 16 16 16 15 13
25 35 42 27 13 17 23 18 14 9 11 7 6 6 7 10 12 12 10 12 10 9 14 14 17 16 19 19 23 24 21 18 19 19 16 15 16 17 17 16 16 16 15 13
30 24 23 28 12 15 22 18 24 8 9 9 12 15 18 17 16 15 13 14 17 21 20 20 20 22 22 24 22 20 19 20 21 18 17 17 18 18 17 17 16 17 14 12
20 29 30 22 28 16 16 16 11 14 17 20 23 19 17 17 17 16 13 14 17 17 17 19 23 24 22 21 21 19 20 21 21 20 18 17 17 17 17 17 18 16 14 13
31 25 27 21 24 17 18 15 17 20 20 15 14 13 14 17 17 16 14 14 14 16 14 15 17 18 19 20 20 20 23 18 18 22 20 19 20 19 18 18 17 15 15 13
30 27 32 29 21 18 18 18 18 15 15 16 14 16 15 14 19 20 20 18 18 16 15 16 18 19 20 19 18 20 19 22 23 25 22 23 24 19 18 17 17 17 15 13
37 33 30 29 22 19 18 18 15 14 13 13 13 14 17 19 19 22 22 22 21 19 19 18 17 16 16 19 19 20 22 23 24 24 22 24 22 19 17 16 17 16 15 14
Wind_Direction
269 258 255 270 275 268 270 267 269 269 268 265 262 263 257 255 256 257 255 250 252 250 250 253 251 263 273 283 292 291 302 313 312 314 308 300 293 290 290 291 293 294 296 298
263 264 270 271 266 264 262 263 264 270 266 264 266 266 262 251 248 254 260 254 251 249 246 242 247 262 272 281 286 285 294 303 308 313 308 300 296 295 295 297 300 302 304 306
261 269 262 262 259 257 259 258 266 270 272 266 270 269 261 254 250 245 251 250 246 248 237 236 250 261 272 277 280 280 286 294 302 307 305 301 300 300 300 299 298 301 308 312
264 261 257 258 258 258 267 266 270 269 270 268 271 281 273 264 257 248 245 243 241 237 229 234 249 260 269 272 272 275 277 284 296 304 305 300 297 295 296 301 308 312 313 312
253 262 264 258 259 259 260 270 275 276 273 277 257 266 278 260 254 250 243 243 241 240 239 239 248 257 265 269 269 266 268 269 279 289 295 294 297 300 304 307 308 308 308 309
253 258 257 256 255 244 254 257 258 263 258 253 250 220 269 255 257 266 254 242 241 239 242 244 244 250 258 263 267 263 265 263 267 277 287 292 296 297 300 302 305 307 310 313
254 257 256 254 245 238 237 241 253 231 182 242 254 212 253 270 238 256 256 254 248 243 247 250 246 254 259 262 262 259 254 254 259 266 275 283 289 293 297 302 305 309 313 312
276 290 277 263 253 254 248 228 215 248 215 259 234 230 248 268 260 255 261 252 247 251 255 256 252 254 259 256 252 249 245 247 251 257 266 276 286 291 296 301 307 312 311 310
256 260 250 301 307 258 250 225 253 240 263 305 277 259 268 263 263 265 262 264 261 255 251 246 248 252 256 249 240 239 242 245 247 254 264 274 282 287 293 298 304 309 310 310
259 280 273 281 273 268 258 272 230 206 225 237 246 259 260 266 275 271 268 270 266 267 260 257 255 251 249 239 234 236 240 243 246 252 263 272 277 283 289 296 301 306 308 308
265 259 274 282 268 269 284 264 251 252 241 257 260 246 266 272 279 275 270 273 271 268 265 268 259 243 237 230 233 236 239 242 244 252 263 269 276 282 287 291 298 305 307 308
299 304 295 297 294 282 267 256 258 258 253 240 252 256 263 268 272 272 270 290 263 262 264 268 254 239 230 227 229 234 237 239 244 251 259 269 275 279 282 291 300 304 306 306
300 309 322 311 310 290 264 259 263 274 270 257 265 256 260 275 280 293 280 272 271 264 251 259 249 236 226 227 230 236 237 240 235 243 261 271 274 275 281 292 299 302 302 300
286 291 271 271 280 285 317 296 293 283 289 274 255 267 268 269 273 286 279 274 267 248 242 245 245 232 225 224 232 238 242 236 226 244 265 283 273 272 285 295 297 298 296 298
286 280 281 275 270 274 297 307 310 296 308 281 303 274 269 273 272 264 259 259 251 238 239 234 233 229 224 229 241 249 253 238 239 253 256 269 275 280 290 295 297 294 294 303
284 278 277 273 271 270 285 290 295 280 280 274 286 310 271 254 259 257 255 235 241 233 232 229 228 233 234 257 259 268 257 250 258 261 250 248 271 273 289 292 288 291 298 300
268 265 254 270 289 282 285 291 270 279 282 274 282 311 317 308 241 236 241 230 208 218 233 211 231 241 250 239 251 251 246 244 250 248 238 245 266 276 283 280 285 288 291 293
252 251 257 270 283 237 277 270 258 278 278 273 284 299 316 309 325 284 247 231 223 214 240 243 221 246 249 250 240 240 245 258 263 234 239 259 271 275 273 274 277 280 278 284
247 244 246 240 218 261 273 273 271 277 283 283 286 292 291 296 288 267 275 249 248 241 250 237 239 245 254 248 242 247 253 244 286 244 227 255 261 267 266 268 271 272 267 276
243 241 237 224 216 223 278 265 240 264 285 273 302 317 319 326 318 323 267 236 222 227 244 252 253 249 250 257 255 251 260 258 247 246 242 254 263 260 258 260 266 263 263 267
220 222 219 223 226 257 257 254 268 257 284 232 280 279 297 308 295 293 311 309 264 267 274 281 269 256 256 245 239 234 240 243 242 241 266 258 255 254 252 262 257 257 261 261
231 211 225 224 228 251 260 237 223 258 266 262 273 287 286 287 291 280 271 258 254 255 251 250 256 251 243 240 233 229 232 238 243 266 268 261 253 250 256 256 252 254 254 259
216 220 219 216 228 246 222 206 231 253 272 276 285 295 284 287 287 286 278 266 267 267 260 253 249 244 237 232 227 223 231 234 248 263 260 255 246 248 251 249 245 246 250 253
237 218 235 228 227 223 211 246 260 264 269 280 292 294 279 279 281 281 282 265 259 255 256 246 239 236 233 231 233 231 243 219 256 263 266 251 241 241 243 241 241 242 244 247
234 224 225 230 232 232 229 259 257 264 270 276 287 285 280 277 270 273 268 270 266 258 253 244 238 235 234 227 227 229 236 240 256 263 258 244 243 235 233 234 238 240 241 244
222 232 227 238 250 241 254 259 268 271 271 283 291 285 282 277 266 266 264 272 274 256 243 241 244 244 241 227 226 237 239 252 257 262 258 246 243 234 230 230 236 238 237 239